Hourly Data Report for November 16, 2020

CARBERRY CS
MANITOBA
Current Station Operator: ECCC - MSC

49°54'20.900" N
99°21'26.800" W
383.50 m
5010547
71170
WZE

Download Data

Hourly Data (November 2020)
Hourly Data Report for November 16, 2020
TIME
LST
Temp Definition
°C
Dew Point Definition
°C
Rel Hum Definition
%
Precip. Amount Definition
mm

Wind Dir Definition
10's deg

Wind Spd Definition
km/h
Visibility Definition
km
Stn Press Definition
kPa
Hmdx Definition


Wind Chill Definition


Weather Definition


00:00 -9.3 -11.2 86 0.0 3 12   96.54   -15 LegendNANA
01:00 -9.5 -11.1 88 0.0 5 9   96.61   -14 LegendNANA
02:00 -9.4 -10.9 89 0.0 5 10   96.67   -15 LegendNANA
03:00 -9.7 -11.2 88 0.0 7 8   96.74   -14 LegendNANA
04:00 -9.7 -11.4 88 0.0 5 8   96.79   -14 LegendNANA
05:00 -9.6 -11.2 88 0.0 3 7   96.90   -14 LegendNANA
06:00 -9.5 -11.5 86 0.0 1 8   97.03   -14 LegendNANA
07:00 -9.8 -11.8 85 0.0 2 8   97.08   -14 LegendNANA
08:00 -10.4 -12.6 84 0.0 2 7   97.21   -14 LegendNANA
09:00 -10.0 -12.3 83 0.0 2 8   97.39   -14 LegendNANA
10:00 -9.0 -12.2 78 0.0 36 9   97.49   -14 LegendNANA
11:00 -8.2 -12.2 72 0.0 31 7   97.56   -12 LegendNANA
12:00 -6.2 -11.6 66 0.0 28 13   97.59   -12 LegendNANA
13:00 -4.2 -10.8 60 0.0 26 13   97.62   -9 LegendNANA
14:00 -3.0 -10.5 56 0.0 27 18   97.66   -9 LegendNANA
15:00 -2.5 -10.0 56 0.0 25 18   97.69   -8 LegendNANA
16:00 -3.0 -10.0 59 0.0 24 14   97.74   -8 LegendNANA
17:00 -4.9 -9.8 68 0.0 24 13   97.76   -10 LegendNANA
18:00 -6.2 -9.7 76 0.0 25 13   97.83   -12 LegendNANA
19:00 -7.6 -9.9 84 0.0 27 14   97.88   -14 LegendNANA
20:00 -7.7 -9.7 86 0.0 25 9   97.92   -12 LegendNANA
21:00 -9.7 -11.2 89 0.0 28 10   97.92   -15 LegendNANA
22:00 -11.1 -12.6 89 0.0 27 14   97.98   -18 LegendNANA
23:00 -10.7 -12.2 89 0.0 35 10   98.03   -16 LegendNANA

Notes on Data Quality.

Legend

  • E = Estimated
  • M = Missing
  • NA = Not Available*
  • [empty] = Indicates an unobserved value
Date modified: